Regional Weather Roundup
Issued by NWS

Current Version | Previous Version | Text Only | Print | Product List | Glossary Off
Versions: 1 2 3 4 5 6 7 8 9 10 11 12 13 14 15 16 17 18 19 20 21 22 23 24 25 26 27 28 29 30 31 32 33 34 35 36 37 38 39 40 41 42 43 44 45 46 47 48 49 50

000
ASUS44 KMEG 311100
RWRTN
TENNESSEE HOURLY STATE WEATHER ROUNDUP
NATIONAL WEATHER SERVICE MEMPHIS TN
600 AM CDT TUE MAY 31 2016

TNZ002-004-019-021-049-052-054-088>092-311200-
WEST TENNESSEE

CITY           SKY/WX    TMP DP  RH WIND       PRES   REMARKS
MEMPHIS INTL   HVY RAIN  70  67  90 W7        30.00R FOG
NWS MEMPHIS      N/A     70 N/A N/A MISG        N/A
JACKSON        PTCLDY    68  65  90 CALM      29.96R
DYERSBURG      CLOUDY    72  68  88 CALM      29.95S
UNION CITY     CLEAR     68  68 100 CALM      29.94S
PARIS          CLEAR     64  61  88 CALM      29.97R
LEXINGTON      CLEAR     64  64 100 CALM      29.96R
$$

TNZ008-025-027-028-033-062-065-066-311200-
NORTH MIDDLE TENNESSEE

CITY           SKY/WX    TMP DP  RH WIND       PRES   REMARKS
NASHVILLE      CLOUDY    65  61  87 CALM      29.98R
CLARKSVILLE    CLOUDY    66  63  90 CALM      29.97R
COOKEVILLE     CLEAR     57  57 100 CALM      29.99R
CROSSVILLE     PTCLDY    60  57  89 CALM      30.03R
$$

TNZ061-075-076-078-094-096-097-311200-
SOUTH MIDDLE TENNESSEE

CITY           SKY/WX    TMP DP  RH WIND       PRES   REMARKS
TULLAHOMA      CLEAR     57  57 100 CALM      29.99S
WINCHESTER     CLEAR     57  57 100 CALM      29.99R
MCMINNVILLE    CLEAR     61  61 100 CALM      29.99S
COLUMBIA       CLEAR    N/A N/A N/A CALM      29.97R
SHELBYVILLE    CLEAR     61  61 100 CALM      29.99R
$$

TNZ017-018-042-046-047-311200-
NORTHEAST TENNESSEE

CITY           SKY/WX    TMP DP  RH WIND       PRES   REMARKS
TRI CITIES     FOG       62  61  96 CALM      30.03R VSB<1/4
$$

TNZ012-013-036-069-073-074-311200-
CENTRAL EAST TENNESSEE

CITY           SKY/WX    TMP DP  RH WIND       PRES   REMARKS
KNOXVILLE      MOCLDY    64  62  93 N3        29.97R
OAK RIDGE      CLEAR     66  63  90 CALM      30.00R
GATLINBURG     CLEAR     59  57  94 CALM      29.99R
$$

TNZ083-085-099-311200-
SOUTHEAST TENNESSEE

CITY           SKY/WX    TMP DP  RH WIND       PRES   REMARKS
CHATTANOOGA    CLOUDY    66  63  90 CALM      29.97R
$$

SKY/WX REPORTED AS FAIR MEANS FEW OR NO CLOUDS BELOW
12 THOUSAND FEET.




USA.gov is the U.S. government's official web portal to all federal, state and local government web resources and services.